DELTA 1 DEB, 21498

Orbit data source: Space-Track

DELTA 1 DEB, 21498 is space debris in SSO originally from a launch on Thu, 12 Jun 1975 UTC launched from the Air Force Western Test Range (AFWTR). Debris objects in space refer to the collection of defunct objects orbiting the Earth. Examples of debris include non-operational satellites, rocket bodies, and fragments generated from explosions, collisions, or faulty payload assembly.

Loading next visibility...
Identifier
21498, 1975-052FT
Orbit
SSO
Country
Flag of USUS
Related business
Manufacturer
Unknown
Mission
Spacecraft
Bus & Motor
Unknown
Mass
Unknown
Launch date (UTC)
1975-06-12 (50 years ago)
Launch vehicle
Unknown
Launch site
Air Force Western Test Range (AFWTR)
Object type
Payload
Rocket body
Debris
Shape & HBR
Unknown shape, 0.1 m
Radar Cross Section
Small (<0.1 m²)

Expand to show TLE details & history
Last TLE update: 16 hours ago

TLE from 16 hours ago
0 DELTA 1 DEB
1 21498U 75052FT  25291.79264416 -.00000243  00000-0 -62021-3 0  9996
2 21498  99.6970 230.6817 0262146 246.2424 139.8346 12.95145987624892
Epoch: 2025-10-18T19:01Z
TLE epoch observation values (Epoch: 2025-10-18T19:01:24.455Z)
Latitude
27.5706°
Longitude
-87.28246°
Altitude
1,439.964 km
Speed
7.071 km/s
True Right ascension
15h 02m 21s
True Declination
27° 26' 31"
Sunlit
Object was in daylight at epoch
Visualization orbit readout
Latitude
Unknown
Longitude
Unknown
Altitude
Unknown
Speed
Unknown
Apparent Right ascension
Unknown
Apparent Declination
Unknown
Sunlit
N/A
Visualization observer readout
Local Sidereal Time
06:12:34
Azimuth
Unknown
Elevation
Unknown
Doppler factor
Unknown
Orbital elements
Apogee altitude
1,479.257 km
Perigee altitude
1,077.824 km
Semi-major axis
7,656.677 km
Eccentricity
0.02621
Inclination
99.697°
RAAN
230.6817°
Arg. of periapsis
246.2424°
True anomaly
141.72443°
Mean anomaly
139.8346°
Eccentric anomaly
140.78422°
Mean motion
3.23953 °/min
Orbital period
111.13 mins
BSTAR
-0.00062021
Loading maneuver chart data...
Computing Atmospheric mass density...
Loading historical data...
Loading historical data...
Loading historical data...
Loading historical data...
Loading historical data...
Loading historical data...
Loading historical data...

Documentation

Showing up to 5 results
|